Rome, OR

4:06 AM MST on December 15, 2017 (GMT -0700)
Rome State

Weather History for KREO - September, 2014

Change the Weather History Date:

Wednesday, September 3, 2014

  Actual Average Record
Temperature  
Mean Temperature 61 °F 65 °F  
Max Temperature 75 °F 85 °F 105 °F (2017)
Min Temperature 47 °F 46 °F 32 °F (1999)
Degree Days  
Heating Degree Days 4 3  
Month to date heating degree days 5 9  
Since 1 July heating degree days 15 50  
Cooling Degree Days 0 3  
Month to date cooling degree days 4 11  
Year to date cooling degree days 630 477  
Growing Degree Days 12 (Base 50)    
Moisture  
Dew Point 22 °F    
Average Humidity 32    
Maximum Humidity 56    
Minimum Humidity 8    
Precipitation  
Precipitation 0.00 in 0.01 in 0.13 in (2013)
Month to date precipitation 0.00 0.03  
Year to date precipitation 2.30 6.36  
Sea Level Pressure  
Sea Level Pressure 29.89 in    
Wind  
Wind Speed 6 mph (NNE)    
Max Wind Speed 17 mph    
Max Gust Speed 25 mph    
T = Trace of Precipitation, MM = Missing Value Source: NWS Daily Summary

Daily Weather History Graph

Daily Weather History Graph

Search for Another Location

Airport or City:

Trip Planner

Search our weather history database for the weather conditions in past years. The results will help you decide how hot, cold, wet, or windy it might be!

Date:

Astronomy

Sep. 03, 2014 Rise Set
Actual Time 6:18 AM PDT 7:22 PM PDT
Civil Twilight 5:49 AM PDT 7:51 PM PDT
Nautical Twilight 5:15 AM PDT 8:25 PM PDT
Astronomical Twilight 4:39 AM PDT 9:01 PM PDT
Moon 3:12 PM PDT (9/3) 12:12 AM PDT (9/3)
Length of Visible Light 14h 01m
Length of Day
13h 03m
Waxing Gibbous, 65% of the Moon is Illuminated
Sep 3
Waxing Gibbous
Sep 8
Full
Sep 15
Last Quarter
Sep 23
New
Oct 1
First Quarter

Hourly Weather History & Observations

Time (PDT) Temp. Dew Point Humidity Pressure Visibility Wind Dir Wind Speed Gust Speed Precip Events Conditions
12:52 AM 66.9 °F 32.0 °F 27% 29.73 in - WNW 15.0 mph - N/A   Unknown
1:52 AM 61.0 °F 32.0 °F 34% 29.75 in - SSE 4.6 mph - N/A   Unknown
2:52 AM 57.0 °F 34.0 °F 42% 29.79 in - NE 4.6 mph - N/A   Unknown
3:52 AM 51.1 °F 35.1 °F 54% 29.82 in - NNE 5.8 mph - N/A   Unknown
4:52 AM 52.0 °F 36.0 °F 54% 29.84 in - ENE 10.4 mph - N/A   Unknown
5:52 AM 51.1 °F 35.1 °F 54% 29.86 in - NE 6.9 mph - N/A   Unknown
6:52 AM 50.0 °F 35.1 °F 57% 29.89 in - East 5.8 mph - N/A   Unknown
7:52 AM 57.0 °F 34.0 °F 42% 29.91 in - NE 3.5 mph - N/A   Unknown
8:52 AM 60.1 °F 30.0 °F 32% 29.94 in - Variable 4.6 mph - N/A   Unknown
9:52 AM 63.0 °F 28.0 °F 27% 29.93 in - Variable 3.5 mph - N/A   Unknown
10:52 AM 64.9 °F 24.1 °F 21% 29.93 in - Calm Calm - N/A   Unknown
11:52 AM 68.0 °F 19.9 °F 16% 29.92 in - South 5.8 mph - N/A   Unknown
12:52 PM 71.1 °F 12.9 °F 11% 29.91 in - WNW 10.4 mph - N/A   Unknown
1:52 PM 71.1 °F 10.0 °F 9% 29.91 in - WSW 8.1 mph - N/A   Unknown
2:52 PM 73.0 °F 9.0 °F 8% 29.90 in - NNW 9.2 mph - N/A   Unknown
3:52 PM 73.9 °F 9.0 °F 8% 29.89 in - Variable 4.6 mph - N/A   Unknown
4:52 PM 73.9 °F 10.0 °F 9% 29.89 in - North - - N/A   Unknown
5:52 PM 73.0 °F 9.0 °F 8% 29.90 in - NNW 10.4 mph - N/A   Unknown
6:52 PM 70.0 °F 12.0 °F 11% 29.91 in - NNW 10.4 mph - N/A   Unknown
7:52 PM 62.1 °F 15.1 °F 16% 29.92 in - North 4.6 mph - N/A   Unknown
8:52 PM 57.0 °F 14.0 °F 18% 29.94 in - NNE 6.9 mph - N/A   Unknown
9:52 PM 57.9 °F 15.1 °F 19% 29.94 in - Calm Calm - N/A   Unknown
10:52 PM 53.1 °F 19.0 °F 26% 29.96 in - NNE 8.1 mph - N/A   Unknown
11:52 PM 52.0 °F 24.1 °F 34% 29.97 in - North 8.1 mph - N/A   Unknown